1494252000.02,44778,17.44,72910.5,7.63,-33.21,-34.25,0,*74
1494252001.27,44779,17.44,72910.3,7.61,-32.91,-34.01,0,*7B
1494252002.53,44780,17.44,72914.5,7.61,-33.61,-35.01,0,*72
1494252003.78,44781,17.44,72910.3,7.59,-32.79,-33.89,0,*76
1494252005.06,44782,17.44,72910.0,7.57,-32.19,-33.27,0,*79
1494252006.34,44783,17.44,72910.5,7.57,-30.95,-31.61,0,*7E
1494252007.59,44784,17.44,72914.0,7.57,-31.17,-32.19,0,*7E
1494252008.87,44785,17.44,72908.8,7.61,-29.51,-30.39,0,*71
1494252010.1,44786,17.44,72914.0,7.63,-29.01,-29.79,0,*79
1494252011.32,44787,17.44,72914.3,7.63,-28.63,-29.61,0,*74
1494252012.58,44788,17.44,72916.8,7.65,-29.83,-30.89,0,*7C
1494252013.8,44789,17.44,72912.5,7.67,-29.95,-30.95,0,*75
1494252015.03,44790,17.44,72918.0,7.71,-28.97,-29.73,0,*79
1494252016.29,44791,17.44,72918.8,7.73,-29.57,-30.73,0,*7F
1494252017.56,44792,17.44,72914.3,7.73,-29.39,-30.51,0,*74
1494252018.82,44793,17.44,72914.8,7.75,-28.91,-30.51,0,*70
1494252020.02,44794,17.44,72912.3,7.75,-29.23,-31.01,0,*7B
1494252021.29,44795,17.44,72918.0,7.77,-28.63,-30.55,0,*7D
1494252022.52,44796,17.44,72918.0,7.79,-29.95,-31.91,0,*71
1494252023.75,44797,17.44,72916.0,7.79,-29.89,-31.67,0,*74
1494252024.95,44798,17.44,72914.0,7.79,-29.61,-31.01,0,*7D
1494252026.17,44799,17.44,72914.0,7.79,-29.79,-31.11,0,*74
1494252027.44,44800,17.44,72912.5,7.83,-29.57,-30.89,0,*72
1494252028.71,44801,17.44,72912.8,7.83,-30.05,-31.23,0,*7D
1494252029.96,44802,17.44,72918.0,7.83,-28.97,-30.39,0,*76
1494252031.23,44803,17.44,72912.3,7.85,-29.35,-30.73,0,*76
1494252032.5,44804,17.44,72912.5,7.87,-28.79,-30.33,0,*7E
1494252033.75,44805,17.44,72916.0,7.87,-28.97,-30.51,0,*7B
1494252034.96,44806,17.44,72914.3,7.89,-28.37,-29.57,0,*72
1494252036.21,44807,17.44,72914.0,7.93,-30.05,-31.61,0,*7C
1494252037.44,44808,17.44,72912.8,7.93,-29.17,-30.27,0,*7B
1494252038.67,44809,17.44,72912.5,7.95,-29.07,-31.05,0,*7C
1494252039.95,44810,17.44,72916.8,7.95,-27.83,-30.05,0,*77
1494252041.18,44811,17.44,72918.0,7.97,-26.07,-28.59,0,*79
1494252042.43,44812,17.44,72912.3,7.99,-26.71,-29.45,0,*79
1494252043.66,44813,17.44,72916.3,7.97,-26.77,-28.97,0,*7E
1494252044.92,44814,17.44,72916.0,7.97,-27.61,-30.17,0,*7E
1494252046.2,44815,17.44,72912.8,7.99,-27.99,-30.01,0,*71
1494252047.43,44816,17.44,72920.0,8.01,-27.23,-29.45,0,*75
1494252048.68,44817,17.44,72918.5,7.99,-27.39,-30.33,0,*78
1494252049.88,44818,17.44,72916.5,8.01,-26.07,-30.11,0,*75
1494252051.11,44819,17.44,72914.5,8.05,-24.35,-27.83,0,*7E
1494252052.36,44820,17.44,72918.0,8.05,-23.85,-27.35,0,*75
1494252053.6,44821,17.44,72918.0,8.07,-24.61,-27.45,0,*7C
1494252054.84,44822,17.44,72914.5,8.07,-26.45,-28.75,0,*77
1494252056.09,44823,17.44,72914.5,8.07,-26.65,-29.35,0,*71
1494252057.34,44824,17.44,72918.5,8.07,-27.99,-31.45,0,*7A
1494252058.59,44825,17.44,72914.8,8.07,-26.39,-30.39,0,*7A
1494252059.79,44826,17.44,72916.5,8.09,-25.91,-30.11,0,*7C
1494252061.05,44827,17.44,72916.0,8.07,-28.09,-32.29,0,*76
1494252062.31,44828,17.44,72918.8,8.07,-27.39,-30.83,0,*77
1494252063.53,44829,17.44,72916.3,8.05,-26.71,-31.01,0,*72
1494252064.78,44830,17.44,72916.8,8.07,-26.07,-29.35,0,*77
1494252066.0,44831,17.44,72920.8,8.07,-26.65,-29.79,0,*7A
1494252067.25,44832,17.44,72922.0,8.07,-25.91,-28.63,0,*7B
1494252068.5,44833,17.44,72916.5,8.07,-28.43,-31.17,0,*73
1494252069.7,44834,17.44,72920.3,8.09,-28.37,-29.83,0,*7D
1494252070.91,44835,17.44,72922.3,8.09,-28.69,-29.45,0,*7D
1494252072.13,44836,17.44,72916.8,8.09,-29.23,-29.73,0,*74
1494252073.4,44837,17.44,72914.8,8.07,-28.25,-29.17,0,*7E
1494252074.63,44838,17.44,72918.5,8.09,-28.37,-29.39,0,*70
1494252075.86,44839,17.44,72918.5,8.09,-29.39,-30.27,0,*79
1494252077.09,44840,17.44,72916.3,8.07,-30.67,-30.83,0,*74
1494252078.32,44841,17.44,72912.3,8.07,-28.85,-29.45,0,*72
1494252079.57,44842,17.44,72912.0,8.07,-28.85,-30.05,0,*7D
1494252080.81,44843,17.44,72914.0,8.07,-33.55,-34.53,0,*7C
1494252082.01,44844,17.44,72916.5,8.05,-32.35,-32.69,0,*71
1494252083.26,44845,17.44,72918.3,8.05,-30.55,-30.73,0,*7D
1494252084.45,44846,17.44,72916.5,8.05,-32.13,-33.03,0,*7A
1494252085.68,44847,17.44,72918.5,8.05,-30.45,-30.77,0,*7A
1494252086.96,44848,17.44,72916.3,8.07,-31.91,-32.85,0,*70
1494252088.23,44849,17.44,72912.3,8.07,-32.07,-32.29,0,*7B
1494252089.47,44850,17.44,72918.0,8.09,-30.67,-30.77,0,*70
1494252090.7,44851,17.44,72912.3,8.09,-30.33,-30.77,0,*70
1494252091.93,44852,17.44,72910.3,8.11,-29.57,-30.33,0,*70
1494252093.19,44853,17.44,72908.5,8.11,-30.11,-31.23,0,*7B
1494252094.47,44854,17.44,72912.8,8.11,-30.17,-30.61,0,*7D
1494252095.66,44855,17.44,72914.3,8.15,-28.37,-29.23,0,*7D
1494252096.94,44856,17.44,72918.0,8.11,-29.29,-30.61,0,*7A
1494252098.16,44857,17.44,72912.8,8.15,-27.71,-28.47,0,*71
1494252099.41,44858,17.44,72912.3,8.15,-30.05,-31.95,0,*7C
1494252100.67,44859,17.44,72912.8,8.17,-29.89,-30.33,0,*7E
1494252101.89,44860,17.44,72908.5,8.19,-28.85,-29.13,0,*7D
1494252103.14,44861,17.44,72906.5,8.17,-28.97,-30.05,0,*7E
1494252104.4,44862,17.44,72906.3,8.17,-33.73,-34.47,0,*7F
1494252105.69,44863,17.44,72910.8,8.11,-32.75,-33.27,0,*7E
1494252106.94,44864,17.44,72908.5,8.11,-29.73,-31.17,0,*74
1494252108.21,44865,17.44,72906.0,8.11,-29.29,-30.51,0,*79
1494252109.44,44866,17.44,72910.3,8.15,-29.57,-30.39,0,*79
1494252110.7,44867,17.44,72906.8,8.17,-29.51,-30.33,0,*76
1494252111.93,44868,17.44,72910.8,8.19,-29.17,-29.83,0,*76
1494252113.18,44869,17.44,72906.8,8.21,-30.33,-31.51,0,*74
1494252114.43,44870,17.44,72910.8,8.21,-30.17,-31.01,0,*7F
1494252115.65,44871,17.44,72910.8,8.23,-29.79,-30.51,0,*78
1494252116.85,44872,17.44,72906.3,8.23,-29.95,-31.05,0,*79
1494252118.07,44873,17.44,72910.5,8.23,-30.01,-31.17,0,*7E
1494252119.29,44874,17.44,72908.3,8.23,-28.91,-29.61,0,*71
1494252120.54,44875,17.44,72908.8,8.25,-28.59,-29.07,0,*72
1494252121.82,44876,17.44,72914.8,8.25,-29.35,-30.39,0,*7F
1494252123.02,44877,17.44,72912.5,8.27,-28.69,-29.67,0,*77
1494252124.27,44878,17.44,72906.8,8.29,-28.85,-29.73,0,*71
1494252125.51,44879,17.44,72908.0,8.29,-30.55,-32.01,0,*7B
1494252126.75,44880,17.44,72902.8,8.29,-31.45,-32.51,0,*78
1494252128.02,44881,17.44,72906.3,8.29,-31.23,-31.57,0,*7C
1494252129.28,44882,17.44,72906.8,8.31,-29.89,-30.17,0,*7A
1494252130.52,44883,17.44,72908.0,8.29,-30.39,-31.05,0,*73
1494252131.74,44884,17.44,72902.8,8.31,-30.01,-30.27,0,*77
1494252132.94,44885,17.44,72904.8,8.31,-29.67,-30.11,0,*7B
1494252134.18,44886,17.44,72904.8,8.39,-29.13,-29.35,0,*7D
1494252135.38,44887,17.44,72910.0,8.35,-29.79,-29.95,0,*76
1494252136.58,44888,17.44,72910.8,8.35,-30.27,-31.01,0,*7E
1494252137.84,44889,17.44,72906.8,8.39,-30.17,-30.89,0,*71
1494252139.08,44890,17.44,72904.5,8.35,-30.39,-31.11,0,*79
1494252140.32,44891,17.44,72910.0,8.39,-29.73,-30.05,0,*76
1494252141.55,44892,17.44,72906.8,8.41,-28.97,-29.83,0,*77
1494252142.79,44893,17.44,72910.5,8.45,-29.39,-31.29,0,*7E
1494252144.02,44894,17.44,72908.8,8.45,-29.01,-29.61,0,*77
1494252145.26,44895,17.44,72910.8,8.45,-27.71,-28.05,0,*7C
1494252146.49,44896,17.44,72910.8,8.47,-29.23,-30.33,0,*78
1494252147.75,44897,17.44,72910.8,8.47,-31.29,-31.51,0,*7F
1494252148.99,44898,17.44,72908.0,8.47,-31.01,-31.85,0,*73
1494252150.22,44899,17.44,72912.5,8.47,-31.29,-31.67,0,*74
1494252151.45,44900,17.44,72912.0,8.47,-30.23,-30.83,0,*75
1494252152.66,44901,17.44,72908.8,8.49,-29.67,-30.23,0,*78
1494252153.91,44902,17.44,72912.3,8.49,-30.39,-31.11,0,*78
1494252155.13,44903,17.44,72916.0,8.51,-29.07,-29.67,0,*7D
1494252156.36,44904,17.44,72914.8,8.49,-32.85,-33.55,0,*79
1494252157.58,44905,17.44,72914.5,8.49,-32.85,-32.57,0,*7B
1494252158.83,44906,17.44,72918.3,8.47,-31.01,-30.95,0,*75
1494252160.04,44907,17.44,72912.5,8.49,-31.29,-31.29,0,*76
1494252161.26,44908,17.44,72912.3,8.49,-33.27,-33.03,0,*7F
1494252162.52,44909,17.44,72910.5,8.47,-32.79,-32.23,0,*79
1494252163.77,44910,17.44,72914.5,8.47,-32.23,-31.73,0,*78
1494252165.0,44911,17.44,72914.3,8.49,-31.85,-31.45,0,*7D
1494252166.28,44912,17.44,72914.0,8.51,-31.39,-31.23,0,*70
1494252167.51,44913,17.44,72908.5,8.51,-32.51,-32.69,0,*71
1494252168.73,44914,17.44,72904.3,8.51,-32.39,-32.23,0,*76
1494252169.94,44915,17.44,72904.0,8.49,-31.79,-31.79,0,*75
1494252171.18,44916,17.44,72910.8,8.49,-33.61,-33.73,0,*75
1494252172.46,44917,17.44,72906.8,8.47,-33.77,-33.49,0,*74
1494252173.71,44918,17.44,72914.5,8.47,-32.75,-32.57,0,*76
1494252174.92,44919,17.44,72908.8,8.49,-32.51,-32.51,0,*79
1494252176.18,44920,17.44,72914.0,8.47,-31.45,-31.73,0,*78
1494252177.38,44921,17.44,72912.3,8.45,-31.01,-31.17,0,*79
1494252178.61,44922,17.44,72912.0,8.47,-31.29,-31.33,0,*74
1494252179.85,44923,17.44,72912.8,8.49,-30.39,-31.11,0,*7B
1494252181.06,44924,17.44,72914.5,8.49,-31.45,-32.01,0,*74
1494252182.31,44925,17.44,72912.5,8.49,-32.45,-32.85,0,*7A
1494252183.55,44926,17.44,72908.8,8.49,-32.57,-32.75,0,*75
1494252184.83,44927,17.44,72916.8,8.47,-31.85,-31.85,0,*7A
1494252186.06,44928,17.44,72912.5,8.49,-32.01,-32.19,0,*72
1494252187.3,44929,17.44,72910.5,8.49,-32.57,-32.85,0,*75
1494252188.57,44930,17.44,72918.8,8.47,-31.51,-31.51,0,*7C
1494252189.86,44931,17.44,72916.5,8.47,-32.07,-32.07,0,*7D
1494252191.12,44932,17.44,72912.0,8.45,-32.79,-32.79,0,*7C
1494252192.35,44933,17.44,72912.3,8.49,-30.45,-30.17,0,*76
1494252193.61,44934,17.44,72910.5,8.47,-31.33,-30.77,0,*79
1494252194.86,44935,17.44,72910.5,8.51,-30.01,-29.67,0,*76
1494252196.12,44936,17.44,72910.8,8.53,-30.01,-29.35,0,*70
1494252197.39,44937,17.44,72914.0,8.51,-30.17,-30.39,0,*70
1494252198.64,44938,17.44,72910.3,8.51,-29.95,-28.79,0,*70
1494252199.91,44939,17.44,72906.5,8.51,-30.73,-28.91,0,*77
1494252201.17,44940,17.44,72906.8,8.51,-33.95,-32.07,0,*76
1494252202.37,44941,17.44,72910.0,8.49,-33.55,-29.67,0,*7E
1494252203.59,44942,17.44,72910.8,8.47,-34.89,-29.61,0,*73
1494252204.82,44943,17.44,72908.5,8.41,-35.47,-27.93,0,*74
1494252206.05,44944,17.44,72910.8,8.33,-36.55,-26.03,0,*7E
1494252207.27,44945,17.44,72914.5,8.31,-34.59,-21.57,0,*75
1494252208.54,44946,17.44,72908.5,8.29,-31.57,-17.17,0,*75
1494252209.77,44947,17.44,72908.5,8.27,-28.79,-15.11,0,*7A
1494252211.0,44948,17.44,72904.5,8.25,-21.17,-12.29,0,*7A
1494252212.25,44949,17.44,72910.0,8.25,-18.69,-12.75,0,*71
1494252213.46,44950,17.44,72904.8,8.23,-16.23,-13.47,0,*7F
1494252214.7,44951,17.44,72906.0,8.23,-13.87,-13.87,0,*79
1494252215.91,44952,17.44,72910.5,8.23,-15.01,-16.37,0,*7C
1494252217.13,44953,17.44,72910.8,8.21,-15.53,-16.37,0,*78
1494252218.33,44954,17.44,72906.0,8.23,-15.15,-16.55,0,*7B
1494252219.58,44955,17.44,72908.3,8.23,-16.23,-18.01,0,*73
1494252220.8,44956,17.44,72904.0,8.27,-18.49,-19.85,0,*7B
1494252221.99,44957,17.44,72906.5,8.27,-18.79,-19.07,0,*73
1494252223.21,44958,17.44,72904.8,8.29,-19.07,-19.13,0,*7F
1494252224.44,44959,17.44,72904.5,8.31,-19.51,-19.27,0,*73
1494252225.69,44960,17.44,72904.8,8.29,-18.35,-20.05,0,*79
1494252226.92,44961,17.44,72910.3,8.31,-18.93,-20.73,0,*7C
1494252228.14,44962,17.44,72906.8,8.31,-17.83,-20.15,0,*71
1494252229.36,44963,17.44,72904.0,8.31,-18.45,-21.53,0,*76
1494252230.55,44964,17.44,72906.0,8.31,-16.93,-20.93,0,*79
1494252231.8,44965,17.44,72910.3,8.39,-17.03,-20.79,0,*7C
1494252233.02,44966,17.44,72910.5,8.35,-16.93,-24.21,0,*72
1494252234.28,44967,17.44,72906.8,8.35,-18.31,-25.03,0,*74
1494252235.5,44968,17.44,72902.3,8.35,-21.63,-28.05,0,*7D
1494252236.7,44969,17.44,72904.0,8.35,-23.09,-29.07,0,*71
1494252237.93,44970,17.44,72908.3,8.35,-23.03,-26.87,0,*74
1494252239.18,44971,17.44,72902.8,8.35,-23.23,-27.99,0,*79
1494252240.4,44972,17.44,72896.5,8.39,-26.97,-30.23,0,*7B
1494252241.62,44973,17.44,72900.8,8.39,-27.13,-28.47,0,*7C
1494252242.84,44974,17.44,72898.3,8.39,-27.35,-28.31,0,*7E
1494252244.1,44975,17.44,72890.0,8.41,-27.61,-28.69,0,*7C
1494252245.32,44976,17.44,72898.8,8.45,-30.05,-30.23,0,*78
1494252246.55,44977,17.44,72900.3,8.45,-30.23,-31.11,0,*7D
1494252247.76,44978,17.44,72900.0,8.45,-31.29,-31.17,0,*7F
1494252248.99,44979,17.44,72902.8,8.41,-33.03,-32.35,0,*73
1494252250.24,44980,17.44,72898.3,8.41,-33.77,-32.51,0,*74
1494252251.49,44981,17.44,72894.8,8.39,-33.09,-31.11,0,*74
1494252252.74,44982,17.44,72900.3,8.39,-31.11,-29.17,0,*73
1494252253.97,44983,17.44,72906.3,8.35,-28.59,-27.67,0,*73
1494252255.21,44984,17.44,72898.5,8.33,-27.55,-28.43,0,*78
1494252256.44,44985,17.44,72896.5,8.33,-29.07,-29.45,0,*77
1494252257.71,44986,17.44,72896.0,8.33,-28.05,-28.43,0,*70
1494252258.96,44987,17.44,72896.5,8.31,-28.05,-27.45,0,*7A
1494252260.18,44988,17.44,72900.0,8.31,-28.05,-26.39,0,*7F
1494252261.4,44989,17.44,72900.5,8.31,-28.79,-27.77,0,*7E
1494252262.65,44990,17.44,72898.0,8.27,-31.23,-29.13,0,*7A
1494252263.87,44991,17.44,72896.0,8.25,-30.27,-27.89,0,*71
1494252265.12,44992,17.44,72896.0,8.25,-27.83,-25.39,0,*73
1494252266.4,44993,17.44,72898.5,8.25,-25.71,-23.19,0,*79
1494252267.65,44994,17.44,72896.8,8.25,-25.39,-21.87,0,*77
1494252268.9,44995,17.44,72896.0,8.25,-25.97,-21.13,0,*7F
1494252270.17,44996,17.44,72896.8,8.21,-26.17,-19.81,0,*73
1494252271.43,44997,17.44,72892.3,8.17,-24.67,-18.21,0,*79
1494252272.71,44998,17.44,72896.3,8.11,-21.53,-16.23,0,*7E
1494252273.95,44999,17.44,72898.3,8.07,-19.07,-14.83,0,*7A
1494252275.21,45000,17.44,72902.5,8.11,-16.83,-14.01,0,*7C
1494252276.44,45001,17.44,72898.0,8.09,-16.09,-13.73,0,*74
1494252277.65,45002,17.44,72898.3,8.07,-15.67,-13.47,0,*75
1494252278.88,45003,17.44,72900.8,8.03,-15.75,-13.51,0,*74
1494252280.07,45004,17.44,72902.5,8.01,-15.63,-13.43,0,*75
1494252281.31,45005,17.44,72900.0,7.97,-16.13,-14.23,0,*71
1494252282.55,45006,17.44,72902.3,7.93,-15.01,-13.79,0,*7E
1494252283.8,45007,17.44,72898.5,7.87,-13.87,-13.47,0,*7F
1494252285.03,45008,17.44,72898.5,7.85,-11.93,-12.25,0,*70
1494252286.29,45009,17.44,72896.3,7.81,-11.29,-11.81,0,*79
1494252287.54,45010,17.44,72900.0,7.83,-10.27,-10.75,0,*76
1494252288.77,45011,17.44,72902.5,7.83,-10.57,-11.01,0,*72
1494252290.05,45012,17.44,72898.5,7.83,-10.75,-11.93,0,*7A
1494252291.33,45013,17.44,72902.5,7.83,-11.33,-12.71,0,*77
1494252292.58,45014,17.44,72904.0,7.83,-11.97,-14.15,0,*7A
1494252293.83,45015,17.44,72902.8,7.83,-11.15,-13.37,0,*76
1494252295.08,45016,17.44,72900.0,7.83,-10.27,-12.53,0,*76
1494252296.33,45017,17.44,72896.5,7.87,-10.93,-13.01,0,*7A
1494252297.61,45018,17.44,72894.5,7.87,-11.89,-13.61,0,*79
1494252298.87,45019,17.44,72888.5,7.89,-12.75,-14.01,0,*77
1494252300.15,45020,17.44,72898.5,7.95,-14.79,-15.89,0,*7B
1494252301.35,45021,17.44,72914.5,7.93,-15.99,-16.59,0,*7D
1494252302.56,45022,17.44,72898.8,7.89,-19.47,-19.37,0,*7D
1494252303.8,45023,17.44,72896.3,7.87,-20.15,-18.99,0,*7A
1494252305.03,45024,17.44,72900.3,7.85,-23.03,-21.43,0,*76
1494252306.24,45025,17.44,72910.3,7.85,-23.59,-19.99,0,*74
1494252307.52,45026,17.44,72900.3,7.83,-23.03,-19.27,0,*7B
1494252308.72,45027,17.44,72902.5,7.81,-21.77,-18.65,0,*7E
1494252309.97,45028,17.44,72904.8,7.83,-21.33,-19.47,0,*72
1494252311.18,45029,17.44,72908.8,7.81,-19.03,-19.17,0,*7C
1494252312.41,45030,17.44,72906.3,7.81,-23.79,-23.85,0,*72
1494252313.69,45031,17.44,72902.5,7.77,-25.55,-23.49,0,*72
1494252314.91,45032,17.44,72898.8,7.73,-25.91,-22.57,0,*73
1494252316.13,45033,17.44,72894.8,7.71,-27.99,-23.39,0,*73
1494252317.35,45034,17.44,72892.0,7.63,-25.87,-20.15,0,*77
1494252318.6,45035,17.44,72894.3,7.65,-22.83,-16.09,0,*7B
1494252319.8,45036,17.44,72892.8,7.67,-21.39,-15.15,0,*76
1494252321.04,45037,17.44,72900.3,7.67,-20.15,-13.83,0,*71
1494252322.27,45038,17.44,72898.8,7.67,-19.99,-13.97,0,*75
1494252323.52,45039,17.44,72900.3,7.65,-18.45,-13.37,0,*7C
1494252324.74,45040,17.44,72902.0,7.65,-16.93,-14.65,0,*77
1494252325.99,45041,17.44,72896.5,7.63,-18.31,-19.27,0,*7D
1494252327.21,45042,17.44,72902.5,7.63,-18.89,-21.13,0,*71
1494252328.42,45043,17.44,72900.0,7.63,-24.31,-27.89,0,*79
1494252329.67,45044,17.44,72894.5,7.59,-26.97,-29.01,0,*77
1494252330.91,45045,17.44,72900.3,7.55,-28.79,-30.45,0,*7C
1494252332.17,45046,17.44,72908.0,7.53,-32.07,-33.03,0,*7A
1494252333.39,45047,17.44,72904.3,7.47,-36.19,-37.15,0,*76
1494252334.59,45048,17.44,72908.0,7.37,-36.55,-36.19,0,*7B
1494252335.85,45049,17.44,72906.5,7.37,-33.27,-33.09,0,*7E
1494252337.11,45050,17.44,72904.5,7.35,-33.09,-32.51,0,*74
1494252338.36,45051,17.44,72908.0,7.33,-32.29,-30.61,0,*71
1494252339.59,45052,17.44,72908.0,7.35,-32.69,-28.85,0,*73
1494252340.82,45053,17.44,72906.5,7.33,-35.47,-28.91,0,*7A
1494252342.05,45054,17.44,72906.5,7.29,-31.29,-22.73,0,*7C
1494252343.3,45055,17.44,72902.5,7.31,-29.51,-18.83,0,*74
1494252344.53,45056,17.44,72904.5,7.27,-25.65,-15.71,0,*7B
1494252345.75,45057,17.44,72900.8,7.25,-24.87,-17.31,0,*73
1494252346.95,45058,17.44,72904.8,7.25,-20.59,-15.11,0,*7B
1494252348.16,45059,17.44,72910.8,7.21,-17.49,-15.63,0,*7E
1494252349.39,45060,17.44,72914.0,7.21,-14.61,-15.89,0,*79
1494252350.6,45061,17.44,72910.3,7.25,-15.01,-18.49,0,*7A
1494252351.83,45062,17.44,72900.5,7.25,-18.55,-22.27,0,*74
1494252353.06,45063,17.44,72900.0,7.25,-19.27,-22.11,0,*74
1494252354.3,45064,17.44,72898.8,7.21,-21.67,-23.09,0,*70
1494252355.5,45065,17.44,72894.0,7.21,-22.67,-22.41,0,*7F
1494252356.72,45066,17.44,72888.3,7.21,-24.41,-22.41,0,*7E
1494252357.98,45067,17.44,72896.3,7.19,-24.61,-21.27,0,*75
1494252359.22,45068,17.44,72898.3,7.21,-24.21,-20.73,0,*75
1494252360.45,45069,17.44,72898.5,7.25,-20.89,-17.45,0,*77
1494252361.67,45070,17.44,72902.0,7.25,-18.07,-15.01,0,*70
1494252362.92,45071,17.44,72902.0,7.25,-17.79,-15.57,0,*74
1494252364.18,45072,17.44,72896.8,7.27,-16.55,-15.39,0,*72
1494252365.41,45073,17.44,72902.8,7.27,-15.53,-15.15,0,*78
1494252366.69,45074,17.44,72910.0,7.27,-13.29,-13.97,0,*78
1494252367.95,45075,17.44,72908.8,7.29,-13.79,-15.81,0,*73
1494252369.21,45076,17.44,72902.3,7.29,-17.03,-20.53,0,*70
1494252370.44,45077,17.44,72904.0,7.29,-16.09,-19.51,0,*72
1494252371.67,45078,17.44,72910.0,7.29,-15.71,-19.27,0,*70
1494252372.9,45079,17.44,72908.5,7.29,-16.27,-19.51,0,*70
1494252374.15,45080,17.44,72910.8,7.29,-17.25,-19.41,0,*74
1494252375.4,45081,17.44,72910.8,7.31,-18.93,-20.05,0,*74
1494252376.66,45082,17.44,72910.3,7.29,-22.47,-23.49,0,*75
1494252377.87,45083,17.44,72912.0,7.29,-22.53,-25.09,0,*73
1494252379.13,45084,17.44,72906.5,7.29,-25.97,-31.11,0,*77
1494252380.36,45085,17.44,72896.8,7.29,-24.77,-29.17,0,*76
1494252381.63,45086,17.44,72906.3,7.31,-26.55,-30.51,0,*74
1494252382.87,45087,17.44,72904.3,7.31,-30.55,-33.95,0,*79
1494252384.12,45088,17.44,72906.5,7.31,-31.73,-34.07,0,*7F
1494252385.37,45089,17.44,72908.5,7.31,-32.45,-34.47,0,*7C
1494252386.65,45090,17.44,72906.3,7.31,-32.07,-33.31,0,*74
1494252387.86,45091,17.44,72910.8,7.31,-33.15,-34.07,0,*75
1494252389.11,45092,17.44,72904.0,7.31,-33.21,-33.89,0,*70
1494252390.37,45093,17.44,72908.8,7.31,-34.47,-35.07,0,*76
1494252391.57,45094,17.44,72906.0,7.29,-34.41,-34.71,0,*7E
1494252392.82,45095,17.44,72910.5,7.29,-33.43,-33.73,0,*7F
1494252394.1,45096,17.44,72910.5,7.31,-32.63,-32.45,0,*72
1494252395.37,45097,17.44,72908.0,7.31,-31.91,-31.61,0,*78
1494252396.63,45098,17.44,72908.5,7.33,-32.75,-32.63,0,*7D
1494252397.85,45099,17.44,72908.5,7.35,-32.91,-32.69,0,*7A
1494252399.14,45100,17.44,72906.8,7.35,-33.43,-33.27,0,*7E
1494252400.39,45101,17.44,72912.3,7.37,-34.31,-34.01,0,*7C
1494252401.63,45102,17.44,72910.5,7.37,-34.01,-33.67,0,*7B
1494252402.88,45103,17.44,72908.8,7.33,-32.97,-32.45,0,*76
1494252404.11,45104,17.44,72908.3,7.35,-32.69,-32.23,0,*76
1494252405.34,45105,17.44,72910.5,7.37,-32.39,-32.07,0,*76
1494252406.61,45106,17.44,72910.8,7.39,-32.29,-31.91,0,*76
1494252407.89,45107,17.44,72914.3,7.39,-32.63,-32.45,0,*73
1494252409.13,45108,17.44,72908.8,7.41,-32.63,-32.29,0,*79
1494252410.39,45109,17.44,72912.8,7.43,-33.21,-32.75,0,*74
1494252411.63,45110,17.44,72914.3,7.43,-31.91,-31.33,0,*74
1494252412.91,45111,17.44,72910.8,7.43,-31.57,-31.39,0,*75
1494252414.14,45112,17.44,72910.3,7.47,-31.33,-31.17,0,*7C
1494252415.39,45113,17.44,72910.3,7.49,-31.33,-30.95,0,*78
1494252416.62,45114,17.5,72908.0,7.49,-30.27,-30.23,0,*76
1494252417.87,45115,17.44,72910.0,7.51,-29.51,-29.13,0,*7C
1494252419.1,45116,17.44,72906.5,7.53,-30.11,-28.97,0,*7C
1494252420.35,45117,17.44,72906.5,7.53,-31.17,-28.91,0,*7C
1494252421.61,45118,17.44,72906.5,7.53,-28.43,-26.87,0,*73
1494252422.87,45119,17.44,72908.8,7.55,-28.59,-27.35,0,*77
1494252424.15,45120,17.44,72910.8,7.57,-28.21,-27.99,0,*76
1494252425.4,45121,17.44,72910.3,7.59,-29.17,-29.73,0,*77
1494252426.66,45122,17.44,72908.8,7.59,-29.89,-29.51,0,*73
1494252427.86,45123,17.44,72910.5,7.55,-29.23,-27.89,0,*75
1494252429.09,45124,17.44,72912.8,7.55,-26.55,-24.47,0,*7D
1494252430.36,45125,17.44,72916.3,7.57,-23.23,-20.99,0,*7D
1494252431.58,45126,17.44,72912.5,7.57,-20.29,-19.37,0,*79
1494252432.85,45127,17.44,72908.0,7.55,-19.27,-21.27,0,*74
1494252434.07,45128,17.44,72910.5,7.55,-20.35,-24.57,0,*70
1494252435.33,45129,17.44,72908.0,7.57,-19.65,-25.13,0,*7D
1494252436.58,45130,17.44,72910.0,7.55,-23.03,-30.01,0,*79
1494252437.83,45131,17.44,72906.3,7.55,-25.45,-30.01,0,*7C
1494252439.07,45132,17.44,72906.5,7.53,-24.47,-27.07,0,*7A
1494252440.29,45133,17.5,72910.3,7.57,-26.23,-29.23,0,*77
1494252441.55,45134,17.44,72910.8,7.55,-28.79,-31.23,0,*7A
1494252442.78,45135,17.44,72904.5,7.55,-29.95,-31.73,0,*7D
1494252444.06,45136,17.44,72910.5,7.57,-29.35,-31.11,0,*72
1494252445.31,45137,17.44,72908.5,7.57,-28.43,-30.23,0,*73
1494252446.56,45138,17.44,72910.8,7.57,-27.67,-29.17,0,*7A
1494252447.79,45139,17.44,72912.3,7.61,-27.93,-29.57,0,*71
1494252449.04,45140,17.44,72906.0,7.61,-30.73,-32.35,0,*79
1494252450.3,45141,17.44,72906.0,7.61,-29.51,-30.23,0,*75
1494252451.5,45142,17.44,72902.3,7.63,-29.23,-30.11,0,*70
1494252452.72,45143,17.44,72906.3,7.63,-30.45,-31.51,0,*7C
1494252453.97,45144,17.44,72902.8,7.65,-28.97,-30.01,0,*7F
1494252455.2,45145,17.44,72900.8,7.67,-28.21,-29.45,0,*79
1494252456.45,45146,17.44,72906.0,7.71,-28.79,-31.11,0,*78
1494252457.68,45147,17.44,72908.3,7.71,-27.29,-29.35,0,*7C
1494252458.94,45148,17.44,72906.0,7.71,-29.35,-31.85,0,*72
1494252460.2,45149,17.44,72906.3,7.71,-29.17,-30.77,0,*7F
1494252461.45,45150,17.44,72908.0,7.71,-26.77,-29.35,0,*70
1494252462.71,45151,17.44,72904.3,7.71,-27.61,-31.85,0,*75
1494252463.98,45152,17.44,72902.8,7.73,-30.61,-33.09,0,*74
1494252465.21,45153,17.44,72906.8,7.71,-29.57,-31.23,0,*70
1494252466.43,45154,17.44,72904.0,7.67,-27.83,-31.45,0,*77
1494252467.67,45155,17.44,72910.8,7.67,-29.89,-32.91,0,*78
1494252468.87,45156,17.44,72910.8,7.67,-28.85,-31.45,0,*7C
1494252470.12,45157,17.5,72912.8,7.65,-30.89,-32.57,0,*7A
1494252471.32,45158,17.44,72908.3,7.63,-29.67,-31.33,0,*7A
1494252472.52,45159,17.44,72908.3,7.63,-29.61,-32.13,0,*7C
1494252473.77,45160,17.44,72908.8,7.63,-28.75,-30.17,0,*74
1494252475.04,45161,17.44,72910.5,7.65,-28.47,-30.55,0,*74
1494252476.28,45162,17.44,72914.3,7.63,-28.05,-30.67,0,*76
1494252477.5,45163,17.44,72910.0,7.63,-28.79,-31.33,0,*7C
1494252478.73,45164,17.44,72914.0,7.65,-27.77,-30.27,0,*78
1494252480.0,45165,17.44,72912.5,7.65,-27.45,-30.01,0,*7C
1494252481.27,45166,17.44,72914.0,7.65,-27.19,-30.01,0,*76
1494252482.53,45167,17.44,72912.3,7.65,-27.71,-30.73,0,*7C
1494252483.78,45168,17.44,72910.5,7.65,-27.89,-30.51,0,*74
1494252485.0,45169,17.5,72916.8,7.67,-26.23,-29.01,0,*7B
1494252486.19,45170,17.44,72914.3,7.71,-25.35,-28.31,0,*72
1494252487.44,45171,17.44,72916.0,7.73,-27.99,-31.29,0,*74
1494252488.66,45172,17.44,72916.8,7.71,-29.29,-31.05,0,*7E
1494252489.91,45173,17.44,72922.3,7.71,-27.83,-29.39,0,*77
1494252491.1,45174,17.44,72916.0,7.75,-30.45,-32.69,0,*77
1494252492.36,45175,17.44,72916.5,7.73,-29.39,-30.33,0,*7E
1494252493.64,45176,17.44,72918.8,7.73,-29.35,-30.17,0,*77
1494252494.86,45177,17.44,72924.0,7.75,-28.79,-29.79,0,*79
1494252496.11,45178,17.44,72916.5,7.75,-31.73,-32.97,0,*7E
1494252497.34,45179,17.44,72922.3,7.75,-29.83,-30.17,0,*73
1494252498.57,45180,17.44,72922.5,7.75,-29.79,-30.89,0,*77
1494252499.86,45181,17.44,72924.3,7.77,-29.51,-30.39,0,*75
1494252501.08,45182,17.44,72920.8,7.79,-28.75,-29.61,0,*7A
1494252502.29,45183,17.44,72920.5,7.79,-29.95,-30.83,0,*70
1494252503.51,45184,17.44,72920.8,7.79,-29.29,-30.23,0,*7A